DW7061 Weather Reports


Display with metric or nautical units.
time (UTC)temp
F
wind
direction
speed
MPH
gust
MPH
rain 1hr
in
rain 24hr
in
rain mn
in
humidity
%
barometer
mb
20260506113017 56 225 2.0 8.0 0.00 0.00 0.00 91 1008.6
20260506112018 56 225 1.0 9.0 0.00 0.00 0.00 91 1008.4
20260506111017 56 225 1.0 8.0 0.00 0.00 0.00 92 1008.6
20260506110017 55 248 1.0 6.0 0.00 0.00 0.00 92 1008.8
20260506105058 56 225 2.0 7.0 0.00 0.00 0.00 92 1008.8
20260506104017 55 248 2.0 5.0 0.00 0.00 0.00 92 1008.9
20260506103037 55 225 1.0 8.0 0.00 0.00 0.00 92 1008.7
20260506102018 55 248 2.0 7.0 0.00 0.00 0.00 92 1008.5
20260506101017 55 248 1.0 5.0 0.00 0.00 0.00 92 1008.6
20260506100018 55 248 1.0 5.0 0.00 0.00 0.00 91 1008.7
20260506095017 55 248 1.0 4.0 0.00 0.00 0.00 91 1008.5
20260506094017 55 248 1.0 3.0 0.00 0.00 0.00 91 1008.6
20260506093037 55 270 1.0 4.0 0.00 0.00 0.00 90 1008.6
20260506092058 55 248 1.0 5.0 0.00 0.00 0.00 90 1008.5
20260506091017 55 113 1.0 10.0 0.00 0.00 0.00 90 1008.7
20260506090017 56 270 2.0 10.0 0.00 0.00 0.00 90 1008.7
20260506085038 56 225 2.0 5.0 0.00 0.00 0.00 89 1008.8
20260506084037 56 248 1.0 5.0 0.00 0.00 0.00 89 1008.9
20260506083017 56 225 2.0 7.0 0.00 0.00 0.00 89 1008.9
20260506082038 56 248 1.0 5.0 0.00 0.00 0.00 89 1008.8
20260506081037 56 248 1.0 5.0 0.00 0.00 0.00 88 1008.9
20260506073018 57 225 1.0 5.0 0.00 0.00 0.00 87 1009.0
20260506072017 57 248 1.0 4.0 0.00 0.00 0.00 86 1009.1
20260506071018 57 270 1.0 4.0 0.00 0.00 0.00 85 1009.1
20260506062018 58 248 1.0 4.0 0.00 0.00 0.00 82 1009.0
20260506061017 58 225 1.0 2.0 0.00 0.00 0.00 81 1009.1
20260506051017 59 248 1.0 3.0 0.00 0.00 0.00 78 1009.1
20260506045018 59 225 2.0 9.0 0.00 0.00 0.00 77 1009.3
20260506044017 59 248 2.0 5.0 0.00 0.00 0.00 77 1009.2
20260506043017 59 248 1.0 5.0 0.00 0.00 0.00 77 1009.4
20260506042017 59 248 2.0 9.0 0.00 0.00 0.00 76 1009.3
20260506041017 59 248 2.0 10.0 0.00 0.00 0.00 76 1009.2
20260506040020 60 248 2.0 10.0 0.00 0.00 0.00 76 1009.1
20260506035036 60 248 2.0 6.0 0.00 0.00 0.00 75 1009.2
20260506034020 60 248 2.0 6.0 0.00 0.00 0.00 75 1009.3
20260506033016 60 270 1.0 8.0 0.00 0.00 0.00 74 1009.3
20260506032015 60 248 1.0 6.0 0.00 0.00 0.00 74 1009.2
20260506031016 60 248 1.0 5.0 0.00 0.00 0.00 73 1009.2
20260506030016 60 248 1.0 4.0 0.00 0.00 0.00 73 1009.3
20260506025036 61 225 1.0 8.0 0.00 0.00 0.00 72 1009.2
20260506024016 61 248 1.0 8.0 0.00 0.00 0.00 71 1009.2
20260506023016 61 248 2.0 6.0 0.00 0.00 0.00 71 1009.1
20260506022016 61 248 2.0 8.0 0.00 0.00 0.00 71 1008.9
20260506021036 62 248 1.0 5.0 0.00 0.00 0.00 71 1008.9
20260506020018 62 0.0 2.0 0.00 0.00 0.00 71 1008.8
20260506015018 62 248 1.0 5.0 0.00 0.00 0.00 70 1008.9
20260506014016 63 0.0 3.0 0.00 0.00 0.00 70 1008.8
20260506013018 63 0.0 2.0 0.00 0.00 0.00 69 1008.6
20260506012016 63 270 1.0 4.0 0.00 0.00 0.00 68 1008.6
20260506011018 64 248 1.0 5.0 0.00 0.00 0.00 68 1008.6
20260506010016 64 248 1.0 3.0 0.00 0.00 0.00 67 1008.5
20260506005038 65 270 1.0 4.0 0.00 0.00 0.00 66 1008.5
20260506004017 65 0.0 3.0 0.00 0.00 0.00 65 1008.4
20260506003017 66 248 1.0 5.0 0.00 0.00 0.00 64 1008.3
20260506002018 66 248 3.0 7.0 0.00 0.00 0.00 63 1007.6
20260506001017 66 270 1.0 5.0 0.00 0.00 0.00 63 1007.5
20260506000017 67 248 2.0 7.0 0.00 0.00 0.00 62 1007.2
20260505235018 67 225 3.0 9.0 0.00 0.00 0.00 61 1006.9
20260505234058 68 248 2.0 7.0 0.00 0.00 0.00 60 1006.9
20260505233038 68 248 2.0 6.0 0.00 0.00 0.00 59 1006.6
20260505232018 69 225 1.0 4.0 0.00 0.00 0.00 58 1006.4
20260505231017 69 248 2.0 13.0 0.00 0.00 0.00 58 1006.3
20260505230018 70 225 2.0 11.0 0.00 0.00 0.00 57 1006.3
20260505225016 70 225 3.0 6.0 0.00 0.00 0.00 56 1006.2
20260505224018 71 225 3.0 8.0 0.00 0.00 0.00 54 1006.1
20260505223016 72 248 3.0 11.0 0.00 0.00 0.00 53 1006.0
20260505222018 72 248 4.0 23.0 0.00 0.00 0.00 52 1005.8
20260505221036 73 270 4.0 10.0 0.00 0.00 0.00 52 1006.0
20260505220017 73 225 3.0 9.0 0.00 0.00 0.00 51 1006.1
20260505215018 74 248 3.0 7.0 0.00 0.00 0.00 50 1005.8
20260505214017 74 225 4.0 11.0 0.00 0.00 0.00 50 1005.5
20260505213017 74 225 3.0 8.0 0.00 0.00 0.00 50 1005.4
20260505212018 74 248 4.0 12.0 0.00 0.00 0.00 50 1005.6
20260505211017 75 248 5.0 12.0 0.00 0.00 0.00 49 1005.7
20260505210016 76 248 4.0 10.0 0.00 0.00 0.00 48 1005.6
20260505205018 76 248 4.0 15.0 0.00 0.00 0.00 47 1005.4
20260505204017 76 225 2.0 9.0 0.00 0.00 0.00 47 1005.4
20260505203038 76 248 4.0 10.0 0.00 0.00 0.00 47 1005.4
20260505202017 76 270 3.0 11.0 0.00 0.00 0.00 47 1005.4
20260505201018 76 248 4.0 15.0 0.00 0.00 0.00 47 1005.5
20260505200017 77 248 3.0 7.0 0.00 0.00 0.00 46 1005.7
20260505195038 78 225 3.0 8.0 0.00 0.00 0.00 44 1005.6
20260505194017 79 248 3.0 9.0 0.00 0.00 0.00 45 1005.8
20260505193038 78 248 3.0 11.0 0.00 0.00 0.00 45 1006.0
20260505192017 78 248 5.0 12.0 0.00 0.00 0.00 45 1005.9
20260505191017 78 248 5.0 13.0 0.00 0.00 0.00 44 1006.0
20260505190038 78 248 4.0 15.0 0.00 0.00 0.00 43 1006.1
20260505185018 79 248 4.0 12.0 0.00 0.00 0.00 43 1006.3
20260505184017 79 248 3.0 10.0 0.00 0.00 0.00 44 1006.5
20260505183017 79 248 4.0 9.0 0.00 0.00 0.00 44 1006.6
20260505182018 78 248 4.0 9.0 0.00 0.00 0.00 43 1006.6
20260505181018 78 248 5.0 13.0 0.00 0.00 0.00 44 1006.7
20260505180018 78 248 2.0 7.0 0.00 0.00 0.00 46 1006.9
20260505175017 78 225 4.0 13.0 0.00 0.00 0.00 46 1007.0
20260505174018 78 248 2.0 7.0 0.00 0.00 0.00 46 1007.0
20260505173017 77 270 4.0 12.0 0.00 0.00 0.00 47 1007.2
20260505172018 76 225 4.0 12.0 0.00 0.00 0.00 46 1007.4
20260505171038 76 248 3.0 8.0 0.00 0.00 0.00 47 1007.4
20260505170017 77 248 3.0 10.0 0.00 0.00 0.00 46 1007.4
20260505165018 76 248 3.0 10.0 0.00 0.00 0.00 48 1007.6
20260505164018 76 248 2.0 14.0 0.00 0.00 0.00 49 1007.8
20260505163017 75 270 2.0 7.0 0.00 0.00 0.00 50 1008.0
20260505162017 75 248 3.0 6.0 0.00 0.00 0.00 50 1008.3
20260505161017 75 248 3.0 7.0 0.00 0.00 0.00 49 1008.5
20260505153018 73 113 1.0 4.0 0.00 0.00 0.00 51 1008.8
20260505152017 71 248 2.0 5.0 0.00 0.00 0.00 54 1008.9
20260505151018 70 248 2.0 8.0 0.00 0.00 0.00 53 1009.0
20260505125018 58 248 1.0 4.0 0.00 0.00 0.00 75 1009.2
20260505124017 56 0.0 3.0 0.00 0.00 0.00 78 1009.1
20260505123037 56 248 1.0 4.0 0.00 0.00 0.00 80 1009.1
20260505122018 55 203 1.0 4.0 0.00 0.00 0.00 82 1009.1
20260505121017 54 248 2.0 8.0 0.00 0.00 0.00 83 1009.1
20260505120017 53 248 1.0 3.0 0.00 0.00 0.00 83 1009.1
20260505115017 53 225 1.0 4.0 0.00 0.00 0.00 83 1009.3
20260505114017 53 225 1.0 7.0 0.00 0.00 0.00 84 1009.5